[[{"header":{"parameterUnit":"m.s-1","parameterCategory":1,"la1":30.2992,"la2":30.254,"lo1":-89.0895,"lo2":-89.0443,"dy":0.0025,"dx":0.0025,"nx":19,"ny":19,"refTime":"2026-05-17T03:00:00:Z","depth":0,"parameterNumber":2,"parameterNumberName":"U-component_of_WINDS"},"data":[0,0,0,-3.3113,-3.3113,-3.3073,-3.3073,-3.3049,-3.3049,0,0,0,0,0,0,0,0,0,0,0,-3.3143,-3.3143,-3.3114,-3.3113,-3.3073,-3.3073,-3.3049,-3.3049,0,0,0,0,0,0,0,0,0,0,0,-3.3142,-3.3143,-3.3144,-3.3113,-3.3073,-3.3073,-3.3049,-3.3069,0,0,0,0,0,0,0,0,0,0,-3.3103,-3.3147,-3.3143,-3.3144,-3.3113,-3.3073,-3.3073,-3.3069,-3.3068,-3.3079,0,-3.3094,0,-3.3071,-3.3049,-3.3049,0,0,0,-3.31,-3.3149,-3.3122,-3.3144,-3.3113,-3.3073,-3.3087,-3.3068,-3.3066,-3.3077,-3.3093,-3.3092,-3.3071,-3.3049,-3.3049,-3.316,-3.3161,0,0,-3.3102,-3.3144,-3.3124,-3.3122,-3.3131,-3.3089,-3.3086,-3.3066,-3.3087,-3.3093,-3.3091,-3.307,-3.3049,-3.3049,-3.3159,-3.316,0,0,0,-3.3117,-3.3147,-3.312,-3.3124,-3.3115,-3.3088,-3.3085,-3.3088,-3.3076,-3.309,-3.307,-3.3049,-3.3049,-3.3157,-3.3159,-3.3257,0,0,0,-3.3118,-3.3155,-3.3122,-3.3147,-3.3116,-3.3101,-3.3108,-3.3077,-3.3074,-3.307,-3.3049,-3.3049,-3.3156,-3.3158,-3.3251,-3.3295,0,0,0,-3.3139,-3.3158,-3.3158,-3.315,-3.3134,-3.31,-3.3087,-3.3075,-3.3062,-3.3049,-3.3049,-3.3155,-3.3158,-3.3246,-3.3287,-3.3337,0,0,0,-3.3174,-3.3245,-3.316,-3.3231,-3.3135,-3.3162,-3.3086,-3.3104,-3.3104,-3.3049,-3.3156,-3.3159,-3.3245,-3.3282,-3.3332,-3.3386,-3.3412,0,0,-3.3287,-3.326,-3.3298,-3.3221,-3.3275,-3.3164,-3.3231,-3.319,-3.315,-3.3159,-3.3161,-3.3253,-3.3286,-3.3336,-3.3549,-3.3571,0,0,0,-3.3348,-3.3376,-3.3381,-3.3384,-3.3356,-3.3335,-3.328,-3.3266,-3.3271,-3.3163,-3.3284,-3.3302,-3.3329,-3.3353,-3.3371,-3.3391,-3.3172,-3.3172,-3.3171,-3.3567,-3.3513,-3.3573,-3.3514,-3.3518,-3.3462,-3.346,-3.343,-3.3373,-3.3403,-3.3404,-3.354,-3.357,-3.3583,-3.3605,-3.3429,-3.3429,-3.343,-3.343,-3.3726,-3.3757,-3.3682,-3.3713,-3.3655,-3.368,-3.363,-3.3589,-3.3603,-3.3534,-3.3555,-3.3484,-3.3609,-3.3625,-3.3437,-3.3436,-3.3435,-3.3434,-3.3434,-3.3863,-3.3868,-3.385,-3.385,-3.3856,-3.3794,-3.3812,-3.3758,-3.3708,-3.3729,-3.3725,-3.3723,-3.3714,-3.3731,-3.3732,-3.3732,-3.3733,-3.3733,-3.3733,-3.4011,-3.3987,-3.4009,-3.3987,-3.3983,-3.397,-3.3916,-3.3909,-3.3889,-3.3848,-3.3848,-3.3788,-3.3632,-3.3593,-3.374,-3.3739,-3.3738,-3.3737,-3.3737,-3.419,-3.4141,-3.4176,-3.4172,-3.4142,-3.4151,-3.4084,-3.4076,-3.4063,-3.4074,-3.401,-3.3904,-3.3872,-3.3857,-3.3824,-3.4022,-3.4022,-3.4022,-3.4022,-3.4304,-3.4284,-3.4308,-3.4305,-3.4295,-3.4239,-3.4279,-3.4238,-3.4188,-3.4176,-3.414,-3.4093,-3.408,-3.4056,-3.4036,-3.4005,-3.4245,-3.4245,-3.4245,-3.4412,-3.4388,-3.4433,-3.4384,-3.4357,-3.4335,-3.4371,-3.4371,-3.4303,-3.4253,-3.4166,-3.4157,-3.408,-3.4058,-3.4005,-3.3976,-3.3917,0,0]},{"header":{"parameterUnit":"m.s-1","parameterCategory":1,"la1":30.2992,"la2":30.254,"lo1":-89.0895,"lo2":-89.0443,"dy":0.0025,"dx":0.0025,"nx":19,"ny":19,"refTime":"2026-05-17T03:00:00:Z","depth":0,"parameterNumber":3,"parameterNumberName":"V-component_of_WINDS"},"data":[0,0,0,3.2847,3.2847,3.2847,3.2847,3.2857,3.2857,0,0,0,0,0,0,0,0,0,0,0,3.2852,3.2852,3.2847,3.2847,3.2847,3.2847,3.2857,3.2857,0,0,0,0,0,0,0,0,0,0,0,3.2852,3.2852,3.2852,3.2847,3.2847,3.2847,3.2857,3.2853,0,0,0,0,0,0,0,0,0,0,3.2852,3.2861,3.2852,3.2852,3.2847,3.2847,3.2847,3.2853,3.2854,3.2861,0,3.2868,0,3.2863,3.2858,3.2858,0,0,0,3.2843,3.2861,3.2856,3.2852,3.2847,3.2847,3.2846,3.2853,3.2854,3.2862,3.2868,3.2868,3.2863,3.2858,3.2859,3.2912,3.2912,0,0,3.2843,3.2855,3.2856,3.2857,3.2857,3.2846,3.2846,3.2853,3.2862,3.2868,3.2868,3.2863,3.2859,3.2859,3.2911,3.2912,0,0,0,3.2845,3.2855,3.285,3.2857,3.2856,3.2846,3.2846,3.2861,3.2859,3.2868,3.2863,3.2859,3.2859,3.2911,3.2912,3.2944,0,0,0,3.2845,3.2856,3.285,3.2857,3.2856,3.2859,3.2854,3.2858,3.2859,3.2863,3.2859,3.2859,3.291,3.2911,3.2942,3.2957,0,0,0,3.285,3.2857,3.2859,3.2858,3.2858,3.2858,3.2856,3.2858,3.2856,3.2858,3.2859,3.291,3.2911,3.294,3.2954,3.2975,0,0,0,3.2859,3.2888,3.2859,3.289,3.2859,3.2878,3.2856,3.287,3.2876,3.2859,3.291,3.2912,3.294,3.2953,3.2973,3.2994,3.3004,0,0,3.2902,3.2893,3.291,3.2885,3.2913,3.2877,3.291,3.2904,3.2894,3.2907,3.2908,3.2943,3.2954,3.2974,3.3055,3.3063,0,0,0,3.2928,3.294,3.2945,3.2952,3.2948,3.2947,3.2935,3.2933,3.2943,3.2903,3.2955,3.2962,3.2973,3.2982,3.2989,3.2998,3.2916,3.2916,3.2916,3.3006,3.2991,3.3018,3.3004,3.301,3.2998,3.3003,3.2998,3.2981,3.2994,3.2997,3.3048,3.306,3.3064,3.3074,3.3007,3.3008,3.3008,3.3008,3.3068,3.3083,3.306,3.3078,3.3063,3.3078,3.3068,3.3056,3.3068,3.3044,3.3053,3.3028,3.3074,3.3081,3.301,3.301,3.3009,3.3009,3.3009,3.3117,3.3121,3.3119,3.3127,3.3135,3.3119,3.3132,3.3118,3.3104,3.3113,3.3116,3.3115,3.3112,3.3115,3.3116,3.3116,3.3116,3.3116,3.3116,3.3169,3.3165,3.3177,3.3176,3.3179,3.318,3.3169,3.3171,3.317,3.3158,3.3158,3.314,3.3081,3.3066,3.3119,3.3118,3.3118,3.3118,3.3118,3.3236,3.3219,3.3238,3.3241,3.3239,3.3248,3.3229,3.3235,3.3235,3.3242,3.3222,3.3181,3.3171,3.3165,3.3153,3.3225,3.3225,3.3225,3.3225,3.3278,3.3271,3.3288,3.3293,3.3296,3.3282,3.3305,3.3297,3.3285,3.3285,3.3272,3.3255,3.325,3.3243,3.3236,3.3224,3.3313,3.3313,3.3313,3.3319,3.3312,3.3334,3.3323,3.332,3.3319,3.334,3.3347,3.3331,3.3316,3.3284,3.328,3.3251,3.3243,3.3227,3.3216,3.3194,0,0]}]]